Wind_Speed
23 23 24 24 24 24 24 24 25 25 26 26 25 23 22 22 21 19 17 16 15 15 15 15 17 18 20 22 24 25 27 27 28 28 27 27 26 24 23 23 22 21
21 21 22 22 21 19 19 20 21 20 19 18 17 17 18 20 19 17 15 15 14 14 14 15 16 17 19 21 22 24 25 26 27 27 26 26 26 25 24 23 23 22
18 18 16 16 15 14 14 15 17 16 14 14 14 15 17 18 17 15 14 14 13 14 14 15 16 17 18 19 21 22 23 24 24 24 24 24 24 24 23 22 22 21
16 14 12 11 11 11 12 13 14 14 14 14 14 14 16 16 15 14 13 13 13 14 15 16 16 17 18 19 20 20 21 21 21 21 21 21 21 21 21 20 20 19
13 12 11 11 11 11 11 12 13 13 14 15 14 14 15 15 14 13 12 13 14 15 15 16 17 17 17 18 18 19 19 19 19 19 19 19 19 19 19 19 18 18
11 12 11 11 12 13 13 13 13 15 15 15 15 15 15 14 14 13 14 14 14 14 14 15 16 17 18 18 18 18 18 18 18 18 18 18 18 18 18 18 18 17
11 12 12 12 12 13 14 14 15 15 16 16 16 16 15 14 13 14 14 14 13 13 13 14 15 17 18 18 18 18 18 19 19 19 19 19 19 19 19 19 18 18
12 13 13 14 14 13 13 14 15 15 16 17 17 17 16 14 13 13 13 13 14 14 14 14 15 16 17 18 19 19 19 19 19 19 19 20 20 20 20 20 19 19
13 13 14 15 15 15 15 15 15 15 16 17 16 16 16 16 15 15 15 15 16 16 16 16 16 17 17 17 18 19 19 20 19 19 19 20 21 21 21 21 20 20
13 13 14 15 16 17 17 17 17 17 17 17 16 15 16 17 17 17 16 17 17 18 17 17 17 18 18 19 20 21 21 21 21 21 21 21 21 21 22 22 22 21
15 14 15 16 17 17 17 18 18 18 17 17 16 16 16 17 18 18 18 18 19 18 18 17 17 18 19 20 20 21 21 21 22 22 22 22 22 21 22 22 23 23
18 17 16 15 16 17 17 17 18 17 16 15 15 16 16 18 19 19 20 20 20 19 19 19 20 20 20 20 21 22 22 22 22 23 23 23 22 22 22 22 23 23
21 20 19 18 17 17 17 17 17 18 17 17 18 18 18 19 20 21 21 21 21 22 22 23 23 23 22 22 22 23 23 23 22 22 23 24 24 24 24 24 25 25
21 22 23 22 22 22 22 22 22 23 24 23 22 21 21 22 22 23 23 24 25 25 25 25 25 24 22 22 23 24 24 24 23 23 25 26 27 27 26 25 25 26
25 25 26 26 27 27 28 29 29 29 29 28 26 25 25 25 26 27 28 28 28 27 27 27 26 25 23 23 24 24 25 26 26 26 26 28 30 28 26 24 24 25
29 29 30 30 31 31 32 33 33 33 33 32 31 30 29 30 31 31 31 30 28 29 29 28 26 24 24 25 26 25 26 26 27 28 29 31 31 29 28 27 28 28
33 34 34 34 34 34 35 35 35 35 35 35 35 35 35 35 34 33 32 30 28 30 30 29 28 25 24 27 29 29 29 28 29 30 31 31 31 30 30 32 33 33
38 38 38 38 38 38 38 38 38 38 37 38 38 38 39 38 36 33 32 30 29 31 32 32 32 30 27 30 33 32 32 31 31 31 31 31 32 32 33 34 35 34
41 41 41 41 41 42 42 41 41 40 40 40 40 40 40 38 36 35 34 33 31 33 35 35 36 35 33 34 35 35 34 33 32 33 34 35 36 35 34 35 34 34
43 43 43 43 44 45 45 44 43 42 42 42 41 42 42 40 37 35 34 34 33 34 34 35 36 36 34 34 36 36 37 36 36 37 37 37 37 35 35 36 36 36
43 43 43 43 44 44 44 45 44 43 43 43 42 43 44 42 39 37 37 37 37 37 37 37 37 36 36 36 37 37 38 38 38 39 38 37 37 37 37 37 37 37
46 46 44 42 41 41 42 43 43 43 43 43 43 45 46 45 44 43 43 43 43 42 41 41 40 39 39 39 38 38 38 38 38 38 39 38 38 38 38 38 38 39
49 46 44 42 41 41 40 41 41 42 43 43 44 45 46 47 46 46 46 46 46 46 45 44 43 42 41 40 39 39 39 38 38 39 40 40 39 39 38 38 39 40
48 45 44 42 40 40 40 40 40 41 42 42 44 45 46 46 46 45 43 41 42 43 43 43 43 42 41 41 41 41 40 40 40 41 41 41 40 39 39 39 40 40
49 46 44 43 42 42 43 44 44 43 42 41 41 42 43 43 43 42 40 39 39 41 42 42 43 43 43 44 43 42 42 42 42 43 43 43 42 42 42 42 42 42
54 52 51 51 51 51 51 51 49 47 45 44 43 42 43 43 42 43 43 43 42 42 43 43 43 43 43 43 42 41 41 42 42 43 43 44 44 45 45 45 44 44
Wind_Direction
270 273 276 275 272 270 269 269 270 270 273 273 268 263 263 263 263 263 265 267 267 267 268 270 272 273 273 271 269 266 263 260 258 256 255 255 255 255 255 256 257 258
272 276 278 277 274 271 268 267 269 272 277 272 259 252 254 256 257 261 266 269 270 269 269 269 271 272 272 271 270 267 265 262 261 259 258 257 256 256 255 255 255 256
275 278 280 282 278 273 270 267 267 270 271 262 251 249 250 251 255 262 267 270 272 273 274 274 273 273 272 271 269 267 266 265 264 263 262 261 261 260 259 258 258 257
274 276 277 277 273 268 265 264 264 264 263 259 253 250 250 250 255 262 268 270 271 274 277 277 276 274 272 270 268 266 264 263 262 262 262 262 262 261 261 261 260 259
265 269 269 265 261 259 258 259 261 261 263 263 257 251 251 252 254 261 270 272 272 273 276 277 276 274 271 270 268 266 264 262 262 261 260 260 260 260 261 261 261 261
254 260 261 259 258 258 258 259 261 260 259 259 255 251 251 256 261 267 270 270 269 269 270 273 274 272 270 269 268 267 265 264 262 261 259 259 259 259 259 260 261 261
257 260 264 264 261 259 258 258 259 257 254 253 254 256 256 257 262 264 260 259 261 264 265 266 268 270 271 269 269 268 266 265 264 262 261 260 259 259 259 258 258 257
257 259 265 268 265 261 260 258 257 255 251 250 255 261 262 259 255 254 254 255 260 264 265 263 261 262 266 268 269 267 265 263 263 264 264 264 263 262 261 259 258 257
251 253 258 263 265 263 262 263 262 258 254 252 252 256 260 258 255 255 257 258 260 261 262 263 260 255 256 260 262 260 257 255 255 256 258 260 261 262 261 261 260 259
251 251 252 255 259 262 264 266 266 262 259 258 255 254 257 259 258 258 259 261 262 260 257 257 256 251 249 252 254 254 253 251 251 252 253 254 256 258 259 260 260 260
252 252 251 252 254 258 262 265 265 263 262 264 264 261 260 261 262 263 263 264 265 264 257 252 251 251 250 250 252 252 253 254 256 257 257 256 256 256 256 257 258 259
253 253 253 252 250 252 257 261 262 262 263 270 273 269 263 260 261 262 263 263 263 263 260 257 259 262 261 256 253 252 253 256 258 260 260 259 256 255 256 258 259 260
255 255 256 255 251 251 254 257 259 259 263 271 277 276 271 264 260 258 259 261 262 264 264 264 264 266 266 263 258 255 253 253 254 255 256 255 255 258 260 262 262 262
262 262 262 261 260 259 261 264 265 266 267 270 273 274 272 267 262 258 258 261 264 268 268 266 265 264 263 262 261 259 256 255 255 255 253 253 255 258 260 262 263 263
269 270 270 269 268 268 268 271 272 272 272 272 273 271 267 265 264 263 264 265 268 271 268 265 265 265 262 260 262 263 262 260 260 260 257 255 255 255 255 260 265 268
270 271 272 272 272 271 271 272 272 272 272 272 272 271 267 266 265 265 266 268 270 270 266 264 265 264 261 259 260 261 259 259 260 260 257 255 255 254 256 263 271 274
270 270 270 270 270 269 269 269 269 269 269 269 270 270 270 268 266 265 266 267 268 266 262 260 261 261 258 258 258 257 256 258 260 260 256 253 254 257 263 269 274 275
269 269 269 268 268 267 266 266 266 266 266 267 268 269 270 268 265 264 264 263 262 260 259 258 259 260 259 259 258 256 256 257 260 259 256 254 259 265 270 271 272 272
269 269 269 268 268 267 266 265 264 263 263 264 265 265 265 263 261 261 262 261 257 254 254 254 256 258 260 260 258 257 257 259 260 261 260 262 266 269 270 268 269 271
270 269 269 268 267 266 265 263 262 261 260 260 261 262 261 258 257 257 257 256 255 253 252 252 253 255 256 256 257 257 259 261 262 263 263 263 265 266 266 267 270 272
272 272 271 269 267 265 263 262 261 260 259 259 258 259 259 256 255 255 255 256 256 254 254 253 252 252 252 254 257 259 261 263 263 262 261 260 261 263 266 270 273 275
274 274 271 268 266 264 262 261 261 261 261 260 258 257 257 256 255 256 259 260 260 257 254 252 251 252 255 257 260 261 261 261 260 258 258 259 261 265 269 273 276 278
273 270 268 265 263 262 261 261 262 262 261 260 258 256 256 256 257 258 260 260 260 257 253 251 252 255 258 259 260 260 259 259 257 256 256 259 262 266 271 275 278 279
269 266 265 262 260 261 262 263 263 263 261 260 258 257 256 256 257 258 257 255 254 254 253 252 252 254 256 257 258 258 258 257 256 256 257 260 263 267 272 278 280 279
262 261 260 258 258 260 262 264 265 263 261 259 258 257 257 256 255 254 252 252 252 251 252 252 252 253 253 254 255 255 256 257 257 258 259 261 264 268 272 277 280 280
260 259 258 257 257 258 260 262 263 262 259 257 256 256 256 255 253 252 252 254 254 253 252 252 253 254 253 252 252 254 255 257 257 259 260 262 265 268 272 277 279 279
Height
5763 5763 5763 5763 5763 5763 5762 5762 5762 5761 5761 5761 5762 5762 5763 5763 5763 5763 5762 5762 5762 5762 5762 5763 5763 5763 5764 5764 5764 5765 5765 5765 5765 5765 5765 5765 5765 5765 5765 5766 5766 5766
5760 5761 5761 5760 5760 5760 5760 5759 5759 5759 5759 5759 5759 5760 5761 5761 5761 5761 5760 5760 5761 5761 5761 5761 5761 5761 5762 5762 5762 5763 5763 5763 5763 5763 5763 5763 5763 5763 5764 5764 5764 5765
5758 5758 5758 5758 5757 5757 5757 5757 5757 5756 5757 5757 5758 5759 5759 5759 5759 5759 5759 5759 5759 5759 5759 5760 5760 5760 5760 5760 5760 5761 5761 5761 5761 5762 5762 5762 5762 5762 5763 5763 5763 5763
5756 5756 5756 5755 5755 5754 5754 5754 5754 5755 5755 5756 5756 5757 5757 5757 5757 5757 5757 5757 5757 5758 5758 5758 5758 5758 5759 5759 5759 5759 5759 5759 5760 5760 5760 5761 5761 5761 5761 5762 5762 5762
5753 5753 5753 5753 5753 5752 5752 5752 5752 5753 5753 5754 5754 5754 5755 5755 5755 5755 5755 5755 5755 5755 5756 5756 5756 5757 5757 5757 5757 5757 5757 5758 5758 5758 5759 5759 5759 5760 5760 5760 5760 5760
5751 5751 5751 5751 5750 5750 5750 5750 5751 5751 5751 5751 5751 5752 5752 5752 5752 5753 5753 5753 5753 5753 5753 5754 5754 5755 5755 5755 5756 5756 5756 5756 5756 5757 5757 5757 5758 5758 5758 5758 5759 5759
5749 5749 5749 5749 5748 5748 5748 5748 5749 5749 5749 5749 5749 5749 5749 5750 5750 5750 5750 5751 5751 5751 5751 5752 5752 5753 5753 5754 5754 5754 5755 5755 5755 5755 5756 5756 5756 5756 5756 5756 5757 5757
5747 5747 5747 5746 5746 5746 5746 5747 5747 5747 5747 5747 5747 5747 5747 5747 5748 5748 5748 5749 5749 5750 5750 5750 5750 5751 5751 5752 5752 5753 5753 5753 5754 5754 5754 5755 5755 5755 5755 5755 5755 5755
5744 5744 5744 5744 5745 5745 5745 5745 5745 5745 5744 5744 5745 5745 5745 5746 5746 5746 5747 5747 5747 5747 5747 5748 5748 5748 5749 5749 5750 5750 5750 5750 5751 5751 5752 5752 5752 5753 5753 5753 5753 5753
5741 5741 5741 5742 5742 5743 5743 5743 5743 5743 5743 5742 5743 5743 5743 5744 5744 5744 5744 5744 5745 5745 5745 5745 5745 5745 5746 5746 5746 5747 5747 5747 5748 5748 5748 5749 5749 5750 5750 5751 5751 5751
5738 5738 5738 5739 5740 5740 5740 5740 5741 5741 5741 5741 5741 5741 5741 5741 5741 5741 5741 5741 5741 5742 5742 5742 5742 5742 5743 5743 5744 5744 5744 5745 5745 5746 5746 5746 5746 5746 5747 5747 5747 5748
5735 5735 5736 5736 5737 5737 5737 5738 5738 5739 5739 5739 5739 5739 5739 5739 5738 5738 5738 5738 5738 5738 5739 5739 5740 5740 5740 5741 5741 5742 5742 5743 5743 5743 5744 5744 5744 5743 5743 5743 5744 5744
5731 5732 5733 5734 5734 5734 5734 5735 5735 5736 5736 5736 5736 5736 5736 5736 5735 5735 5735 5734 5734 5734 5735 5735 5736 5737 5737 5738 5738 5739 5739 5739 5739 5740 5740 5741 5741 5740 5740 5740 5740 5740
5728 5729 5730 5730 5731 5731 5731 5732 5732 5732 5732 5733 5733 5733 5733 5733 5732 5732 5731 5731 5731 5731 5731 5731 5731 5732 5733 5733 5733 5734 5735 5735 5735 5736 5736 5737 5737 5737 5737 5737 5737 5736
5724 5725 5725 5726 5727 5727 5727 5728 5728 5728 5728 5729 5729 5729 5729 5729 5729 5728 5728 5728 5728 5728 5728 5727 5727 5727 5728 5729 5729 5730 5731 5731 5732 5732 5732 5732 5732 5733 5733 5733 5733 5733
5719 5720 5721 5721 5722 5722 5722 5723 5723 5724 5724 5724 5725 5725 5724 5724 5724 5724 5725 5724 5724 5724 5724 5724 5724 5724 5724 5725 5726 5726 5727 5727 5728 5728 5728 5728 5728 5729 5729 5729 5729 5729
5713 5714 5715 5716 5716 5717 5717 5717 5718 5719 5719 5720 5720 5720 5719 5719 5719 5720 5720 5720 5720 5720 5720 5720 5720 5720 5721 5722 5722 5723 5723 5724 5724 5724 5724 5724 5724 5725 5725 5725 5725 5725
5708 5709 5709 5710 5710 5711 5711 5712 5712 5713 5714 5715 5715 5714 5714 5713 5714 5714 5714 5714 5715 5715 5715 5715 5715 5716 5718 5718 5718 5718 5719 5719 5719 5719 5720 5720 5720 5720 5720 5720 5720 5720
5702 5702 5703 5704 5704 5705 5705 5705 5706 5707 5708 5709 5709 5709 5708 5707 5708 5709 5708 5708 5709 5709 5709 5710 5710 5712 5713 5714 5713 5714 5714 5714 5715 5715 5715 5715 5715 5715 5715 5715 5715 5715
5696 5696 5696 5697 5698 5698 5698 5698 5700 5701 5701 5702 5703 5703 5703 5702 5702 5702 5703 5703 5704 5704 5704 5705 5705 5707 5708 5709 5709 5708 5709 5709 5710 5710 5710 5710 5710 5710 5710 5710 5710 5710
5689 5689 5689 5690 5690 5691 5691 5692 5692 5693 5694 5695 5696 5697 5696 5696 5696 5696 5697 5698 5698 5699 5699 5700 5700 5701 5702 5703 5703 5703 5704 5704 5704 5705 5705 5705 5705 5705 5705 5705 5705 5704
5681 5682 5682 5682 5682 5683 5684 5685 5685 5686 5687 5688 5689 5690 5689 5689 5690 5690 5691 5692 5692 5693 5694 5694 5695 5695 5696 5697 5698 5699 5699 5699 5699 5699 5699 5700 5700 5700 5700 5700 5699 5699
5674 5675 5675 5675 5675 5675 5676 5677 5678 5679 5679 5680 5681 5682 5682 5683 5683 5684 5685 5685 5686 5687 5688 5689 5689 5690 5691 5691 5692 5693 5693 5693 5694 5694 5694 5694 5694 5694 5694 5694 5694 5694
5668 5668 5669 5669 5669 5669 5669 5671 5671 5672 5673 5673 5674 5675 5676 5676 5677 5677 5678 5679 5680 5680 5681 5682 5683 5684 5685 5686 5686 5687 5687 5687 5688 5688 5688 5688 5688 5689 5689 5689 5689 5689
5662 5662 5662 5662 5662 5662 5663 5663 5664 5665 5666 5667 5668 5668 5669 5670 5671 5671 5672 5673 5674 5675 5676 5677 5678 5678 5679 5680 5680 5681 5681 5681 5682 5682 5683 5683 5683 5684 5684 5684 5684 5683
5655 5655 5655 5655 5655 5655 5656 5656 5657 5658 5659 5660 5661 5662 5663 5663 5664 5665 5666 5667 5668 5669 5670 5671 5672 5672 5673 5674 5674 5675 5675 5675 5676 5676 5677 5677 5678 5678 5678 5678 5678 5677